User: anonymous   Login
Location: Brunembert
(50.7122°N, 1.8935°E)
Time: 03:09:25
(UTC+00:00)
Language:

Cosmos 1356 - Orbit

View from above orbital plane
View from above orbital plane
View from above satellite
View from above satellite

Ground track
Ground track

The orbit data is extracted from the following two-line orbital elements,

1 13153U 82039A   21174.52127726  .00002982  00000-0  68646-4 0  9997
2 13153  81.0907 265.9059 0003320  67.3576 292.8018 15.42277276145067
Epoch (UTC): 23 June 2021 12:30:38
Eccentricity: 0.0003320
inclination: 81.0907°
perigee height: 437 km
apogee height: 441 km
right ascension of ascending node: 265.9059°
argument of perigee: 67.3576°
revolutions per day: 15.42277276
mean anomaly at epoch: 292.8018°
orbit number at epoch: 14506

The dashed part of the orbit path shows where the satellite is in the earth's shadow,  

DLR